Weather History for Marfa, TX

Change the Weather History Date:

Tuesday, November 12, 2013

  Actual Average Record
Temperature  
Mean Temperature 44 °F -  
Max Temperature 53 °F 63 °F 78 °F (2003)
Min Temperature 35 °F 35 °F 24 °F (2012)
Degree Days  
Heating Degree Days 21    
Moisture  
Dew Point 38 °F    
Average Humidity 83    
Maximum Humidity 93    
Minimum Humidity 62    
Precipitation  
Precipitation 0.00 in - - ()
Sea Level Pressure  
Sea Level Pressure 30.51 in    
Wind  
Wind Speed 14 mph (NNE)    
Max Wind Speed 26 mph    
Max Gust Speed 31 mph    
Visibility 10 miles    
Events      
Averages and records for this station are not official NWS values.
T = Trace of Precipitation, MM = Missing Value Source: NWS Daily Summary

Daily Weather History Graph

Daily Weather History Graph

Search for Another Location

Airport:

Trip Planner

Search our weather history database for the weather conditions in past years. The results will help you decide how hot, cold, wet, or windy it might be!

Date:

Astronomy

Nov. 12, 2013 Rise Set
Actual Time 7:19 AM CST 6:00 PM CST
Civil Twilight 6:54 AM CST 6:25 PM CST
Nautical Twilight 6:25 AM CST 6:54 PM CST
Astronomical Twilight 5:56 AM CST 7:23 PM CST
Moon 2:58 PM CST (11/12) 2:32 AM CST (11/12)
Length of Visible Light 11h 31m
Length of Day
10h 41m
Waxing Gibbous, 76% of the Moon is Illuminated
Nov 12
Waxing Gibbous
Nov 17
Full
Nov 25
Last Quarter
Dec 2
New
Dec 9
First Quarter

Hourly Weather History & Observations

Time (CST) Temp. Windchill Dew Point Humidity Pressure Visibility Wind Dir Wind Speed Gust Speed Precip Events Conditions
12:15 AM 48.2 °F - 42.8 °F 82% 30.32 in 10.0 mi NNW 6.9 mph - N/A   Clear
12:35 AM 46.4 °F 42.9 °F 41.0 °F 81% 30.32 in 10.0 mi North 6.9 mph - N/A   Clear
12:55 AM 46.4 °F 42.4 °F 42.8 °F 87% 30.32 in 10.0 mi NNW 8.1 mph - N/A   Clear
1:15 AM 46.4 °F 42.4 °F 42.8 °F 87% 30.33 in 10.0 mi NNW 8.1 mph - N/A   Clear
1:35 AM 48.2 °F - 42.8 °F 82% 30.33 in 10.0 mi NNW 5.8 mph - N/A   Partly Cloudy
1:55 AM 48.2 °F - 44.6 °F 87% 30.34 in 10.0 mi Calm Calm - N/A   Mostly Cloudy
2:15 AM 48.2 °F - 42.8 °F 82% 30.34 in 10.0 mi North 5.8 mph - N/A   Mostly Cloudy
2:35 AM 48.2 °F - 44.6 °F 87% 30.34 in 10.0 mi North 6.9 mph - N/A   Partly Cloudy
2:55 AM 48.2 °F - 44.6 °F 87% 30.34 in 10.0 mi NNE 6.9 mph - N/A   Mostly Cloudy
3:15 AM 53.6 °F - 46.4 °F 77% 30.35 in 10.0 mi NNE 13.8 mph - N/A   Scattered Clouds
3:35 AM 53.6 °F - 44.6 °F 72% 30.35 in 10.0 mi North 11.5 mph - N/A   Mostly Cloudy
3:55 AM 53.6 °F - 44.6 °F 72% 30.36 in 10.0 mi North 12.7 mph - N/A   Scattered Clouds
4:15 AM 51.8 °F - 44.6 °F 76% 30.37 in 10.0 mi North 11.5 mph - N/A   Clear
4:35 AM 51.8 °F - 44.6 °F 76% 30.37 in 10.0 mi North 12.7 mph - N/A   Clear
4:55 AM 51.8 °F - 44.6 °F 76% 30.38 in 10.0 mi North 9.2 mph - N/A   Clear
5:15 AM 50.0 °F - 44.6 °F 82% 30.38 in 10.0 mi North 12.7 mph - N/A   Clear
5:35 AM 51.8 °F - 39.2 °F 62% 30.39 in 10.0 mi NNE 24.2 mph 27.6 mph N/A   Clear
5:55 AM 48.2 °F - 44.6 °F 87% 30.42 in 10.0 mi NNE 20.7 mph 29.9 mph N/A   Mostly Cloudy
6:15 AM 48.2 °F - 46.4 °F 93% 30.43 in 9.0 mi NNE 23.0 mph 26.5 mph N/A   Overcast
6:35 AM 50.0 °F - 46.4 °F 87% 30.44 in 10.0 mi NNE 19.6 mph 27.6 mph N/A   Overcast
6:55 AM 51.8 °F - 44.6 °F 76% 30.46 in 10.0 mi North 19.6 mph 26.5 mph N/A   Overcast
7:15 AM 51.8 °F - 44.6 °F 76% 30.46 in 10.0 mi NNE 19.6 mph 26.5 mph N/A   Overcast
7:35 AM 51.8 °F - 44.6 °F 76% 30.48 in 10.0 mi NNE 17.3 mph 25.3 mph N/A   Overcast
7:55 AM 51.8 °F - 46.4 °F 82% 30.49 in 10.0 mi North 16.1 mph - N/A   Mostly Cloudy
8:15 AM 51.8 °F - 46.4 °F 82% 30.50 in 10.0 mi NNE 19.6 mph 24.2 mph N/A   Scattered Clouds
8:35 AM 51.8 °F - 46.4 °F 82% 30.51 in 10.0 mi NNE 18.4 mph 25.3 mph N/A   Mostly Cloudy
8:55 AM 51.8 °F - 46.4 °F 82% 30.52 in 5.0 mi NNE 26.5 mph 31.1 mph N/A   Overcast
9:15 AM 46.4 °F 37.7 °F 42.8 °F 87% 30.54 in 10.0 mi NNE 26.5 mph 31.1 mph N/A   Overcast
9:35 AM 44.6 °F 35.5 °F 41.0 °F 87% 30.55 in 10.0 mi NNE 25.3 mph 31.1 mph N/A   Overcast
9:55 AM 44.6 °F 35.7 °F 41.0 °F 87% 30.56 in 7.0 mi NNE 24.2 mph 28.8 mph N/A   Overcast
10:15 AM 44.6 °F 35.7 °F 39.2 °F 81% 30.57 in 5.0 mi NNE 24.2 mph 28.8 mph N/A   Overcast
10:35 AM 44.6 °F 36.1 °F 39.2 °F 81% 30.58 in 10.0 mi NNE 21.9 mph 27.6 mph N/A   Overcast
10:55 AM 44.6 °F 35.5 °F 37.4 °F 76% 30.58 in 10.0 mi NNE 25.3 mph 29.9 mph N/A   Overcast
11:15 AM 42.8 °F 34.3 °F 35.6 °F 76% 30.60 in 10.0 mi NNE 19.6 mph 27.6 mph N/A   Overcast
11:35 AM 41.0 °F 30.5 °F 35.6 °F 81% 30.59 in 10.0 mi NNE 26.5 mph 29.9 mph N/A   Overcast
11:55 AM 39.2 °F 28.0 °F 33.8 °F 81% 30.59 in 10.0 mi NNE 26.5 mph - N/A   Overcast
12:15 PM 42.8 °F 33.1 °F 33.8 °F 70% 30.58 in 10.0 mi NNE 25.3 mph 31.1 mph N/A   Overcast
12:35 PM 42.8 °F 33.3 °F 33.8 °F 70% 30.58 in 10.0 mi NNE 24.2 mph 27.6 mph N/A   Overcast
12:55 PM 42.8 °F 33.3 °F 33.8 °F 70% 30.57 in 10.0 mi North 24.2 mph - N/A   Overcast
1:15 PM 39.2 °F 29.3 °F 33.8 °F 81% 30.57 in 10.0 mi NNE 20.7 mph 28.8 mph N/A   Overcast
1:35 PM 39.2 °F 28.7 °F 33.8 °F 81% 30.55 in 10.0 mi North 23.0 mph - N/A   Overcast
1:55 PM 39.2 °F 29.0 °F 33.8 °F 81% 30.55 in 10.0 mi North 21.9 mph 27.6 mph N/A   Overcast
2:15 PM 39.2 °F 30.2 °F 33.8 °F 81% 30.55 in 10.0 mi North 17.3 mph 23.0 mph N/A   Overcast
2:35 PM 39.2 °F 30.2 °F 33.8 °F 81% 30.55 in 10.0 mi North 17.3 mph 21.9 mph N/A   Overcast
2:55 PM 39.2 °F 29.8 °F 33.8 °F 81% 30.56 in 10.0 mi NNE 18.4 mph - N/A   Overcast
3:15 PM 37.4 °F 27.2 °F 33.8 °F 87% 30.57 in 10.0 mi North 19.6 mph 23.0 mph N/A   Overcast
3:35 PM 37.4 °F 27.5 °F 32.0 °F 81% 30.57 in 10.0 mi North 18.4 mph - N/A   Overcast
3:55 PM 37.4 °F 26.6 °F 32.0 °F 81% 30.56 in 10.0 mi North 21.9 mph 25.3 mph N/A   Overcast
4:15 PM 37.4 °F 27.5 °F 32.0 °F 81% 30.56 in 10.0 mi NNE 18.4 mph 21.9 mph N/A   Overcast
4:35 PM 37.4 °F 28.2 °F 32.0 °F 81% 30.56 in 10.0 mi North 16.1 mph - N/A   Overcast
4:55 PM 37.4 °F 28.5 °F 32.0 °F 81% 30.57 in 10.0 mi North 15.0 mph - N/A   Overcast
5:15 PM 35.6 °F 25.2 °F 32.0 °F 87% 30.57 in 10.0 mi North 18.4 mph - N/A   Overcast
5:35 PM 35.6 °F 25.9 °F 32.0 °F 87% 30.57 in 10.0 mi NNE 16.1 mph - N/A   Overcast
5:55 PM 37.4 °F 28.5 °F 32.0 °F 81% 30.57 in 10.0 mi North 15.0 mph - N/A   Overcast
6:15 PM 37.4 °F 28.9 °F 32.0 °F 81% 30.57 in 10.0 mi NE 13.8 mph - N/A   Overcast
6:35 PM 35.6 °F 27.5 °F 32.0 °F 87% 30.58 in 10.0 mi NNE 11.5 mph - N/A   Overcast
6:55 PM 37.4 °F 29.8 °F 33.8 °F 87% 30.59 in 10.0 mi NNE 11.5 mph - N/A   Overcast
7:15 PM 35.6 °F 26.6 °F 33.8 °F 93% 30.60 in 10.0 mi NNE 13.8 mph - N/A   Overcast
7:35 PM 35.6 °F 26.6 °F 33.8 °F 93% 30.60 in 10.0 mi NE 13.8 mph - N/A   Overcast
7:55 PM 35.6 °F 28.0 °F 33.8 °F 93% 30.60 in 10.0 mi NE 10.4 mph - N/A   Overcast
8:15 PM 35.6 °F 27.1 °F 33.8 °F 93% 30.61 in 10.0 mi NE 12.7 mph - N/A   Overcast
8:35 PM 35.6 °F 27.5 °F 32.0 °F 87% 30.61 in 10.0 mi NE 11.5 mph - N/A   Overcast
8:55 PM 35.6 °F 27.1 °F 32.0 °F 87% 30.61 in 10.0 mi NE 12.7 mph - N/A   Overcast
9:15 PM 35.6 °F 26.2 °F 32.0 °F 87% 30.62 in 10.0 mi NE 15.0 mph 19.6 mph N/A   Overcast
9:35 PM 35.6 °F 27.5 °F 32.0 °F 87% 30.62 in 10.0 mi ENE 11.5 mph - N/A   Overcast
9:55 PM 35.6 °F 27.1 °F 32.0 °F 87% 30.62 in 10.0 mi NE 12.7 mph - N/A   Overcast
10:15 PM 35.6 °F 28.6 °F 32.0 °F 87% 30.62 in 10.0 mi NE 9.2 mph - N/A   Overcast
10:35 PM 35.6 °F 28.0 °F 32.0 °F 87% 30.63 in 10.0 mi NE 10.4 mph - N/A   Overcast
10:55 PM 35.6 °F 27.5 °F 32.0 °F 87% 30.62 in 10.0 mi NE 11.5 mph - N/A   Overcast
11:15 PM 35.6 °F 28.0 °F 32.0 °F 87% 30.62 in 10.0 mi NE 10.4 mph - N/A   Overcast
11:35 PM 35.6 °F 27.1 °F 32.0 °F 87% 30.61 in 10.0 mi NE 12.7 mph - N/A   Overcast
11:55 PM 35.6 °F 27.5 °F 32.0 °F 87% 30.61 in 10.0 mi NE 11.5 mph - N/A   Overcast